Regional Weather Roundup
Issued by NWS Little Rock, AR

Home | Current Version | Previous Version | Graphics & Text | Print | Product List | Glossary On
Versions: 1 2 3 4 5 6 7 8 9 10 11 12 13 14 15 16 17 18 19 20 21 22 23 24 25 26 27 28 29 30 31 32 33 34 35 36 37 38 39 40 41 42 43 44 45 46 47 48 49 50
000
ASUS44 KLZK 151305
RWRLZK

WEATHER ROUNDUP FOR ARKANSAS
NATIONAL WEATHER SERVICE LITTLE ROCK AR
800 AM CDT MON SEP 15 2014

NOTE: "FAIR" INDICATES FEW OR NO CLOUDS BELOW 12,000 FEET WITH NO
SIGNIFICANT WEATHER AND/OR OBSTRUCTIONS TO VISIBILITY.

ARZ001-003-010-029-151400-
NORTHWEST ARKANSAS

CITY           SKY/WX    TMP DP  RH WIND       PRES   REMARKS
FAYETTEVILLE   CLOUDY    64  63  96 S6        30.19S
FORT SMITH     LGT RAIN  65  62  90 E6        30.18R
HARRISON       LGT RAIN  62  62 100 SE3       30.20S FOG
BENTONVILLE    CLOUDY    64  63  94 S8        30.18R
ROGERS         LGT RAIN  64  62  93 S8        30.18S
SILOAM SPGS    CLOUDY    64  59  82 S7        30.18S
HIGHFILL       LGT RAIN  63  63 100 S7        30.17S
SPRINGDALE     CLOUDY    64  63  94 S7        30.20S
$$

ARZ004-005-016-151400-
NORTH CENTRAL ARKANSAS

CITY           SKY/WX    TMP DP  RH WIND       PRES   REMARKS
BATESVILLE     CLOUDY    61  57  88 CALM      30.20R
FLIPPIN        CLOUDY    61  55  82 S3        30.19S
MTN HOME       LGT RAIN  60  59  96 CALM      30.19S FOG
$$

ARZ040-041-151400-
WEST CENTRAL ARKANSAS

CITY           SKY/WX    TMP DP  RH WIND       PRES   REMARKS
MENA           NOT AVBL
MOUNT IDA      CLOUDY    64  62  93 CALM      30.17R
$$

ARZ009-017-025-026-028-151400-
NORTHEAST ARKANSAS

CITY           SKY/WX    TMP DP  RH WIND       PRES   REMARKS
CORNING          N/A     59  57  94 CALM      30.19S
JONESBORO      CLOUDY    63  58  83 CALM      30.19S
NEWPORT        LGT RAIN  62  60  93 CALM      30.20S
WALNUT RIDGE   CLOUDY    57  55  94 CALM      30.18F
BLYTHEVILLE    CLOUDY    62  61  96 N3        30.19R
$$

ARZ022-023-033-042-044-151400-
CENTRAL ARKANSAS

CITY           SKY/WX    TMP DP  RH WIND       PRES   REMARKS
LITTLE ROCK    CLOUDY    67  59  75 N3        30.19R
N LITTLE ROCK    N/A     65  60  85 NW3       30.19R
JACKSONVILLE   CLOUDY    64  60  85 CALM      30.19R
SEARCY         CLOUDY    63  59  87 CALM      30.20S
HOT SPRINGS    CLOUDY    64  60  87 CALM      30.19R
RUSSELLVILLE   CLOUDY    65  62  90 CALM      30.19R
CLINTON        LGT RAIN  63  61  94 CALM      30.21S
$$

ARZ036-151400-
EAST ARKANSAS

CITY           SKY/WX    TMP DP  RH WIND       PRES   REMARKS
WEST MEMPHIS   CLOUDY    63  62  97 CALM      30.17R
$$

ARZ050-053-066-070-073-151400-
SOUTHWEST ARKANSAS

CITY           SKY/WX    TMP DP  RH WIND       PRES   REMARKS
ARKADELPHIA    FAIR      66  61  84 NE3       30.18R
CAMDEN         PTSUNNY   63  59  88 CALM      30.17R
TEXARKANA      PTSUNNY   66  64  93 E3        30.17S
EL DORADO      PTSUNNY   65  61  87 CALM      30.17R
DE QUEEN       CLOUDY    66  64  93 CALM      30.16S
$$

ARZ056-057-069-151400-
SOUTHEAST ARKANSAS

CITY           SKY/WX    TMP DP  RH WIND       PRES   REMARKS
PINE BLUFF     PTSUNNY   65  61  87 CALM      30.17S
STUTTGART      PTSUNNY   63  59  88 N6        30.19R
MONTICELLO     PTSUNNY   67  61  81 CALM      30.16R

$$




USA.gov is the U.S. government's official web portal to all federal, state and local government web resources and services.